Previsão horária em Barsuk

Hoje, 20 Outubro, Terça-feira

Tempo Temperatura Precipitação Vento Pressão Humidade
00:00 +1°C° 0 mm 6 m/s 744 mmHg 84%
01:00 +1°C° 0 mm 6 m/s 745 mmHg 85%
02:00 +1°C° 0 mm 5 m/s 745 mmHg 88%
03:00 +1°C° 0 mm 6 m/s 745 mmHg 88%
04:00 +1°C° 0 mm 6 m/s 745 mmHg 88%
05:00 +1°C° 0 mm 6 m/s 745 mmHg 89%
06:00 +1°C° 0 mm 6 m/s 745 mmHg 87%
07:00 +1°C° 0 mm 6 m/s 745 mmHg 85%
08:00 +1°C° 0 mm 6 m/s 745 mmHg 83%
09:00 +2°C° 0 mm 7 m/s 746 mmHg 80%
10:00 +2°C° 0 mm 7 m/s 746 mmHg 76%
11:00 +3°C° 0 mm 7 m/s 747 mmHg 72%
12:00 +3°C° 0 mm 7 m/s 747 mmHg 71%
13:00 +3°C° 0 mm 6 m/s 748 mmHg 69%
14:00 +3°C° 0 mm 6 m/s 749 mmHg 68%
15:00 +2°C° 0 mm 5 m/s 749 mmHg 70%
16:00 +3°C° 0 mm 4 m/s 749 mmHg 72%
17:00 +2°C° 0 mm 3 m/s 749 mmHg 74%
18:00 +2°C° 0 mm 3 m/s 750 mmHg 78%
19:00 +2°C° 0 mm 2 m/s 750 mmHg 81%
20:00 +2°C° 0 mm 2 m/s 750 mmHg 85%
21:00 +2°C° 0 mm 2 m/s 750 mmHg 85%
22:00 +2°C° 0 mm 2 m/s 750 mmHg 85%
23:00 +2°C° 0 mm 2 m/s 750 mmHg 85%

Amanhã, 21 Outubro, Quarta-feira

Tempo Temperatura Precipitação Vento Pressão Humidade
00:00 +2°C° 0 mm 2 m/s 750 mmHg 85%
01:00 +3°C° 0 mm 2 m/s 750 mmHg 85%
02:00 +3°C° 0 mm 2 m/s 750 mmHg 85%
03:00 +3°C° 0 mm 2 m/s 750 mmHg 84%
04:00 +2°C° 0 mm 3 m/s 749 mmHg 83%
05:00 +2°C° 0 mm 3 m/s 749 mmHg 82%
06:00 +1°C° 0.3 mm 4 m/s 748 mmHg 84%
07:00 +3°C° 0.3 mm 4 m/s 748 mmHg 86%
08:00 +2°C° 0.3 mm 5 m/s 747 mmHg 88%
09:00 +2°C° 1 mm 5 m/s 747 mmHg 90%
10:00 +3°C° 1 mm 4 m/s 747 mmHg 91%
11:00 +4°C° 1 mm 4 m/s 746 mmHg 92%
12:00 +4°C° 0.3 mm 4 m/s 746 mmHg 92%
13:00 +4°C° 0.3 mm 4 m/s 746 mmHg 93%
14:00 +4°C° 0.3 mm 3 m/s 746 mmHg 93%
15:00 +4°C° 0.1 mm 3 m/s 745 mmHg 94%
16:00 +4°C° 0.1 mm 3 m/s 745 mmHg 95%
17:00 +5°C° 0.1 mm 2 m/s 745 mmHg 96%
18:00 +5°C° 0 mm 2 m/s 745 mmHg 96%
19:00 +5°C° 0 mm 2 m/s 745 mmHg 96%
20:00 +6°C° 0 mm 1 m/s 745 mmHg 96%
21:00 +6°C° 0 mm 1 m/s 745 mmHg 96%
22:00 +6°C° 0 mm 1 m/s 745 mmHg 96%
23:00 +6°C° 0 mm 1 m/s 745 mmHg 96%

Depois de amanhã, 22 Outubro, Quinta-feira

Tempo Temperatura Precipitação Vento Pressão Humidade
00:00 +6°C° 0 mm 1 m/s 745 mmHg 96%
01:00 +5°C° 0 mm 2 m/s 745 mmHg 96%
02:00 +5°C° 0 mm 2 m/s 746 mmHg 96%
03:00 +4°C° 0 mm 3 m/s 745 mmHg 96%
04:00 +4°C° 0 mm 3 m/s 745 mmHg 96%
05:00 +4°C° 0 mm 3 m/s 744 mmHg 96%
06:00 +5°C° 0.4 mm 4 m/s 744 mmHg 96%
07:00 +5°C° 0.4 mm 4 m/s 744 mmHg 96%
08:00 +5°C° 0.4 mm 5 m/s 743 mmHg 96%
09:00 +6°C° 0.2 mm 5 m/s 743 mmHg 94%
10:00 +7°C° 0.2 mm 5 m/s 743 mmHg 92%
11:00 +8°C° 0.2 mm 6 m/s 743 mmHg 90%
12:00 +9°C° 0 mm 6 m/s 743 mmHg 86%
13:00 +10°C° 0 mm 6 m/s 742 mmHg 82%
14:00 +11°C° 0 mm 6 m/s 742 mmHg 78%
15:00 +10°C° 0 mm 5 m/s 742 mmHg 82%
16:00 +10°C° 0 mm 5 m/s 742 mmHg 85%
17:00 +10°C° 0 mm 4 m/s 742 mmHg 89%
18:00 +10°C° 0 mm 4 m/s 742 mmHg 89%
19:00 +9°C° 0 mm 5 m/s 742 mmHg 89%
20:00 +9°C° 0 mm 5 m/s 742 mmHg 89%
21:00 +9°C° 0 mm 5 m/s 742 mmHg 91%
22:00 +9°C° 0 mm 5 m/s 742 mmHg 92%
23:00 +9°C° 0 mm 5 m/s 742 mmHg 93%

23 Outubro, Sexta-feira

Tempo Temperatura Precipitação Vento Pressão Humidade
00:00 +10°C° 0 mm 4 m/s 742 mmHg 93%
01:00 +8°C° 0 mm 4 m/s 742 mmHg 94%
02:00 +8°C° 0 mm 4 m/s 742 mmHg 94%
03:00 +8°C° 0 mm 4 m/s 742 mmHg 95%
04:00 +8°C° 0 mm 4 m/s 742 mmHg 95%
05:00 +8°C° 0 mm 4 m/s 742 mmHg 95%
06:00 +8°C° 0 mm 4 m/s 741 mmHg 95%
07:00 +8°C° 0 mm 4 m/s 741 mmHg 94%
08:00 +9°C° 0 mm 5 m/s 740 mmHg 93%
09:00 +9°C° 0.1 mm 5 m/s 740 mmHg 91%
10:00 +10°C° 0.1 mm 5 m/s 740 mmHg 89%
11:00 +10°C° 0.1 mm 6 m/s 740 mmHg 86%
12:00 +10°C° 0.3 mm 6 m/s 739 mmHg 87%
13:00 +11°C° 0.3 mm 7 m/s 739 mmHg 87%
14:00 +11°C° 0.3 mm 7 m/s 739 mmHg 87%
15:00 +10°C° 0.1 mm 7 m/s 738 mmHg 88%
16:00 +10°C° 0.1 mm 7 m/s 738 mmHg 88%
17:00 +10°C° 0.1 mm 6 m/s 738 mmHg 89%
18:00 +10°C° 0.1 mm 6 m/s 738 mmHg 90%
19:00 +10°C° 0.1 mm 5 m/s 738 mmHg 91%
20:00 +10°C° 0.1 mm 5 m/s 738 mmHg 92%
21:00 +9°C° 0 mm 5 m/s 738 mmHg 93%
22:00 +10°C° 0 mm 4 m/s 738 mmHg 93%
23:00 +10°C° 0 mm 4 m/s 738 mmHg 93%

24 Outubro, Sábado

Tempo Temperatura Precipitação Vento Pressão Humidade
00:00 +10°C° 0 mm 4 m/s 738 mmHg 93%
01:00 +9°C° 0 mm 5 m/s 738 mmHg 93%
02:00 +8°C° 0 mm 5 m/s 738 mmHg 93%
03:00 +8°C° 0 mm 4 m/s 738 mmHg 93%
04:00 +8°C° 0 mm 4 m/s 738 mmHg 93%
05:00 +7°C° 0 mm 4 m/s 738 mmHg 93%
06:00 +7°C° 0 mm 4 m/s 738 mmHg 93%
07:00 +7°C° 0 mm 4 m/s 738 mmHg 93%
08:00 +7°C° 0 mm 4 m/s 739 mmHg 93%
09:00 +8°C° 0 mm 4 m/s 739 mmHg 89%
10:00 +10°C° 0 mm 4 m/s 739 mmHg 85%
11:00 +11°C° 0 mm 4 m/s 739 mmHg 81%
12:00 +11°C° 0 mm 4 m/s 739 mmHg 81%
13:00 +11°C° 0 mm 3 m/s 739 mmHg 82%
14:00 +11°C° 0 mm 3 m/s 739 mmHg 82%
15:00 +11°C° 0.2 mm 3 m/s 738 mmHg 85%
16:00 +10°C° 0.2 mm 2 m/s 738 mmHg 88%
17:00 +10°C° 0.2 mm 2 m/s 738 mmHg 91%
18:00 +10°C° 0.4 mm 2 m/s 738 mmHg 91%
19:00 +10°C° 0.4 mm 3 m/s 738 mmHg 90%
20:00 +10°C° 0.4 mm 4 m/s 737 mmHg 90%
21:00 +8°C° 0.2 mm 4 m/s 737 mmHg 91%
22:00 +8°C° 0.2 mm 4 m/s 737 mmHg 91%
23:00 +7°C° 0.2 mm 4 m/s 737 mmHg 92%

25 Outubro, Domingo

Tempo Temperatura Precipitação Vento Pressão Humidade
00:00 +7°C° 0.5 mm 4 m/s 737 mmHg 91%
01:00 +7°C° 0.5 mm 4 m/s 737 mmHg 90%
02:00 +7°C° 0.5 mm 4 m/s 736 mmHg 89%
03:00 +7°C° 0.2 mm 5 m/s 737 mmHg 89%
04:00 +7°C° 0.2 mm 5 m/s 737 mmHg 89%
05:00 +7°C° 0.2 mm 6 m/s 737 mmHg 89%
06:00 +7°C° 0 mm 6 m/s 738 mmHg 88%
07:00 +5°C° 0 mm 6 m/s 738 mmHg 87%
08:00 +4°C° 0 mm 6 m/s 739 mmHg 86%
09:00 +5°C° 0 mm 6 m/s 740 mmHg 85%
10:00 +5°C° 0 mm 6 m/s 741 mmHg 84%
11:00 +7°C° 0 mm 6 m/s 742 mmHg 83%
12:00 +7°C° 0 mm 6 m/s 742 mmHg 80%
13:00 +7°C° 0 mm 6 m/s 743 mmHg 77%
14:00 +7°C° 0 mm 6 m/s 744 mmHg 73%
15:00 +6°C° 0 mm 5 m/s 744 mmHg 76%
16:00 +6°C° 0 mm 4 m/s 744 mmHg 79%
17:00 +5°C° 0 mm 3 m/s 745 mmHg 81%
18:00 +4°C° 0 mm 3 m/s 745 mmHg 84%
19:00 +3°C° 0 mm 3 m/s 746 mmHg 87%
20:00 +4°C° 0 mm 2 m/s 746 mmHg 90%
21:00 +4°C° 0 mm 2 m/s 747 mmHg 91%
22:00 +3°C° 0 mm 2 m/s 747 mmHg 92%
23:00 +3°C° 0 mm 2 m/s 747 mmHg 93%

26 Outubro, Segunda-feira

Tempo Temperatura Precipitação Vento Pressão Humidade
00:00 +3°C° 0 mm 2 m/s 747 mmHg 93%
01:00 +3°C° 0 mm 2 m/s 747 mmHg 93%
02:00 +3°C° 0 mm 2 m/s 748 mmHg 93%
03:00 +2°C° 0 mm 2 m/s 748 mmHg 94%
04:00 +2°C° 0 mm 2 m/s 748 mmHg 94%
05:00 +2°C° 0 mm 2 m/s 748 mmHg 94%
06:00 +2°C° 0 mm 2 m/s 748 mmHg 94%
07:00 +3°C° 0 mm 2 m/s 748 mmHg 94%
08:00 +3°C° 0 mm 2 m/s 748 mmHg 94%
09:00 +4°C° 0 mm 2 m/s 748 mmHg 89%
10:00 +6°C° 0 mm 2 m/s 748 mmHg 85%
11:00 +7°C° 0 mm 2 m/s 748 mmHg 80%
12:00 +8°C° 0 mm 2 m/s 748 mmHg 79%
13:00 +8°C° 0 mm 3 m/s 748 mmHg 77%
14:00 +9°C° 0 mm 3 m/s 748 mmHg 76%
15:00 +8°C° 0 mm 2 m/s 748 mmHg 81%
16:00 +7°C° 0 mm 2 m/s 748 mmHg 85%
17:00 +6°C° 0 mm 2 m/s 748 mmHg 90%
18:00 +6°C° 0 mm 2 m/s 748 mmHg 91%
19:00 +5°C° 0 mm 2 m/s 748 mmHg 91%
20:00 +6°C° 0 mm 1 m/s 748 mmHg 92%
21:00 +6°C° 0 mm 1 m/s 748 mmHg 92%
22:00 +5°C° 0 mm 1 m/s 748 mmHg 92%
23:00 +5°C° 0 mm 1 m/s 748 mmHg 92%
Mostrar mais